sat.trackr.live / text

‹ back to catalog

STARLINK-3748

NORAD 52267 · 2022-041G

PAYLOAD ACTIVE UNKNOWN

§ Identity

Operator
Country
US
Launch date
2022-04-21
Launch site
AFETR
Launch vehicle
Mass (kg)
RCS (m²)

Purposes: comms

External: N2YO · Heavens-Above · Gunter

§ Orbital elements

Epoch: 2026-09-20T04:00:03.000096Z

Period
93.85 min
Inclination
53.1590°
Eccentricity
0.0001113
Mean motion
15.34402391 rev/d
Perigee alt
461.9 km
Apogee alt
463.5 km
Semi-major
6,840.8 km
B*
1.1034e-4
RAAN
301.5850°
Arg perigee
79.6190°
Mean anomaly
122.3516°
Rev number
591

§ Raw data

STARLINK-37481 52267U 22041G   26263.16670139  .00003354  00000+0  11034-3 0  99992 52267  53.1590 301.5850 0001113  79.6190 122.3516 15.34402391  5914

JSON: /api/v1/satellites/52267 · /tle

For live sub-satellite position, see the globe view (requires WebGL).

§ Visibility from observer

Set your observer location to see the next 7 days of passes ≥ 10°. The values pass through the URL so the page stays shareable.

No JS? Fill the form by hand. The geolocation button needs JavaScript.